Temperature
15 15 14 14 14 14 14 13 13 13 14 14 14 15 15 15 15 15 15 15 16 16 16 16 17 17 17 17 17 17 17 17 18 18 18 18 19 19 19 19 18 18 18
15 14 14 14 13 13 13 13 13 13 13 13 13 14 14 14 14 15 15 15 15 16 16 16 16 17 17 17 17 17 17 17 17 17 18 18 18 18 18 18 18 18 18
14 14 14 13 13 13 13 13 13 13 13 13 13 13 14 14 14 14 15 15 15 15 15 16 16 16 16 17 17 17 17 17 17 17 17 18 18 18 18 18 18 18 18
14 14 14 13 13 13 13 12 12 12 13 13 13 13 13 13 14 14 14 15 15 15 15 15 16 16 16 16 17 17 17 17 17 17 17 18 18 18 18 18 18 18 18
14 14 14 13 13 13 13 12 12 12 12 12 12 13 13 13 13 13 14 14 14 15 15 15 15 16 16 16 16 16 16 16 17 17 17 17 17 17 18 18 18 18 18
15 14 14 14 13 13 13 12 12 12 12 12 12 12 12 12 13 13 13 14 14 14 15 15 15 15 15 16 16 16 16 16 16 16 16 16 17 17 17 18 18 17 17
15 14 14 14 13 13 13 12 12 12 12 12 12 12 12 12 12 12 13 13 14 14 14 14 15 15 15 15 16 16 16 16 16 16 16 16 16 17 17 17 17 17 17
15 15 14 14 14 13 13 13 12 12 12 12 12 12 12 12 12 12 12 13 13 13 14 14 14 15 15 15 15 15 15 16 15 16 16 16 16 16 16 16 16 16 16
15 15 15 14 14 13 13 13 12 12 12 12 12 11 12 12 12 12 12 12 13 13 13 14 14 14 14 14 15 15 15 15 15 15 15 15 15 16 16 16 16 16 16
15 15 15 14 14 13 13 13 12 12 12 11 11 11 11 11 12 12 12 12 12 13 13 13 13 14 14 14 14 14 15 15 15 15 15 15 15 15 15 15 15 15 15
16 15 15 14 14 14 13 13 12 12 12 11 11 11 11 11 11 12 12 12 12 12 12 13 13 13 13 14 14 14 14 14 14 15 15 15 15 15 15 15 15 15 15
16 15 15 15 14 14 13 13 12 12 12 11 11 11 11 11 11 11 11 12 12 12 12 12 13 13 13 13 13 14 14 14 14 14 14 14 15 15 15 15 15 15 15
16 16 15 15 14 14 13 13 13 12 12 11 11 11 11 11 11 11 11 11 11 12 12 12 12 12 12 13 13 13 13 13 14 14 14 14 14 14 14 14 15 15 14
16 16 15 15 15 14 14 13 13 12 12 11 11 11 11 11 11 11 11 11 11 11 12 12 12 12 12 12 12 13 13 13 13 13 14 14 14 14 14 14 14 14 14
16 16 16 15 15 14 14 13 13 12 12 11 11 11 11 10 10 10 10 10 11 11 11 11 11 12 12 12 12 12 12 13 13 13 13 13 13 14 14 14 14 14 14
16 16 16 15 15 14 14 14 13 13 12 12 11 11 11 10 10 10 10 10 10 10 10 11 11 11 11 11 12 12 12 12 12 12 13 13 13 13 13 13 14 14 14
16 16 16 15 15 14 14 14 13 13 12 12 11 11 11 10 10 10 10 10 10 10 10 10 10 10 11 11 11 11 12 12 12 12 12 12 12 13 13 13 13 13 13
16 16 16 15 15 14 14 14 13 13 12 12 11 11 10 10 10 10 10 10 10 10 10 10 10 10 10 10 11 11 11 11 11 12 12 12 12 12 13 13 13 13 13
17 16 16 15 15 15 14 14 13 13 12 12 11 11 10 10 10 10 10 10 10 9 9 9 10 10 10 10 10 11 11 11 11 11 11 12 12 12 12 13 13 13 13
17 16 16 16 15 15 14 14 13 13 12 12 11 11 11 10 10 10 10 10 9 9 9 9 9 9 10 10 10 10 10 11 11 11 11 11 12 12 12 13 13 13 13
17 17 16 16 15 15 14 14 13 13 12 12 11 11 11 10 10 10 10 10 10 9 9 9 9 9 9 10 10 10 10 10 11 11 11 11 12 12 12 12 13 13 13
17 17 16 16 16 15 15 14 14 13 12 12 12 11 11 11 10 10 10 10 10 10 9 9 9 9 9 9 10 10 10 10 11 11 11 11 11 12 12 12 12 13 13
17 17 17 16 16 15 15 15 14 14 13 12 12 12 11 11 11 11 10 10 10 10 10 10 10 9 9 10 10 10 10 10 10 11 11 11 11 12 12 12 12 12 13
17 17 17 17 16 16 16 15 15 14 13 13 12 12 12 11 11 11 11 10 10 10 10 10 10 10 10 10 10 10 10 10 10 11 11 11 11 12 12 12 12 12 12
18 17 17 17 17 16 16 16 15 14 14 13 13 12 12 12 11 11 11 11 10 10 10 10 10 10 10 10 10 10 10 10 11 11 11 11 11 11 12 12 12 12 12
18 18 17 17 17 17 17 16 16 15 14 14 13 13 13 12 12 11 11 11 11 11 10 10 10 10 10 10 10 10 10 10 10 11 11 11 11 11 12 12 12 12 12
Wind_Speed
5 7 7 8 8 9 9 9 9 9 7 5 5 5 5 5 5 4 6 7 7 7 5 5 6 6 7 9 9 6 6 5 3 2 2 0 2 5 7 7 8 8 12
7 7 7 7 7 8 8 8 8 8 7 5 5 4 5 5 5 5 5 7 6 7 5 6 6 7 6 8 8 6 5 5 5 4 3 2 1 1 3 5 7 8 8
5 6 6 6 7 7 8 8 8 8 8 8 5 5 4 4 4 5 5 5 6 6 5 6 6 7 7 8 8 8 8 6 5 4 5 5 5 3 1 3 4 6 7
3 5 5 6 7 6 7 7 8 8 8 7 6 6 5 5 5 5 6 7 6 5 5 5 6 7 7 7 8 8 7 7 6 4 3 3 4 4 3 1 1 4 5
3 4 5 6 6 6 6 7 7 7 7 7 7 6 6 5 6 6 7 6 5 5 4 4 5 6 6 7 7 8 8 7 7 5 4 3 1 2 4 4 2 2 2
3 5 5 5 6 6 6 7 7 7 8 8 7 7 8 8 8 8 7 6 5 4 5 3 3 5 5 6 7 7 9 8 8 6 5 5 4 4 4 4 3 3 2
4 5 6 6 6 7 7 6 7 7 8 8 8 7 8 8 8 7 7 7 5 4 5 3 2 2 3 5 5 6 7 8 8 9 7 6 5 4 4 4 3 3 2
4 5 6 6 6 6 5 5 6 6 7 8 8 7 7 6 6 7 6 6 5 4 5 4 3 2 2 2 3 4 6 7 8 9 9 6 6 5 5 5 5 4 2
5 6 5 5 5 4 4 4 5 6 7 7 7 7 7 7 7 8 7 6 5 5 6 5 5 4 3 1 1 2 4 5 7 8 9 8 7 7 6 5 5 6 5
5 5 5 4 4 3 3 4 4 4 5 6 6 6 7 7 7 7 9 8 8 7 7 7 6 6 5 4 1 1 1 3 4 5 7 7 6 7 6 6 6 5 5
6 5 4 4 4 2 2 3 4 4 5 6 5 6 7 7 7 7 8 8 8 8 8 7 7 7 7 6 4 2 1 1 3 3 5 7 7 7 7 6 5 5 5
5 5 4 4 3 2 2 2 3 3 3 4 5 6 6 7 8 8 8 8 8 8 8 7 8 8 8 7 6 5 3 1 1 2 3 5 6 7 6 6 6 6 5
5 4 4 4 4 3 3 2 2 2 2 3 5 6 6 7 7 7 8 8 8 8 8 8 8 8 7 7 7 6 5 4 2 1 2 3 5 5 5 6 6 5 5
5 4 4 5 5 4 4 3 2 1 1 3 4 5 5 6 6 6 7 7 7 7 8 7 7 7 7 7 7 6 6 5 4 3 2 2 3 5 6 6 6 6 6
4 3 4 4 4 4 4 3 1 0 2 3 4 4 4 5 6 6 6 7 7 7 6 7 7 7 6 7 7 5 5 5 5 5 4 3 3 5 5 5 6 7 6
5 4 2 2 3 5 4 3 2 1 2 3 2 2 4 5 5 6 6 6 6 6 6 6 7 7 7 10 10 6 4 4 4 4 4 3 4 4 4 6 8 9 8
6 4 2 2 3 4 5 4 3 2 3 2 1 2 3 4 5 5 6 6 5 5 6 6 6 7 8 12 11 9 4 4 3 3 3 3 4 4 3 5 6 6 8
7 5 3 2 2 2 3 3 3 3 3 2 1 1 2 3 4 5 5 5 4 4 4 5 6 6 9 13 11 8 5 4 4 4 3 3 3 2 3 5 6 5 3
7 6 4 4 2 2 3 4 4 3 3 2 2 1 0 2 3 4 5 4 4 4 4 4 6 6 8 13 12 9 4 4 5 4 4 3 2 2 5 6 7 7 5
7 6 5 4 3 2 4 6 5 4 3 4 3 2 2 1 2 3 3 3 3 4 4 4 5 5 6 12 12 9 3 4 3 3 4 4 3 4 6 6 7 8 5
8 7 6 5 4 4 6 6 5 5 6 5 3 3 3 3 2 2 3 3 4 4 5 5 5 6 7 10 12 10 4 3 3 3 3 3 4 5 6 6 5 7 7
8 7 6 5 5 5 7 7 7 7 6 5 4 3 4 3 1 1 2 3 4 4 5 4 5 5 6 8 10 11 8 5 3 2 2 2 4 6 7 6 8 11 9
9 7 7 6 5 6 7 8 7 7 6 5 5 5 4 3 1 1 0 2 3 3 3 3 3 4 5 7 11 11 9 7 3 2 4 5 7 7 6 9 11 9 7
9 8 7 7 6 7 8 8 8 8 7 6 6 5 4 4 3 2 1 1 0 1 2 2 3 4 4 5 6 6 5 6 5 4 5 8 9 8 8 8 7 5 6
9 8 8 9 9 8 8 8 8 8 7 6 6 5 5 5 4 3 2 3 3 3 2 2 2 2 3 5 7 4 3 3 2 3 4 4 5 5 5 5 6 5 5
9 9 10 10 9 8 9 8 8 8 7 5 5 5 5 5 4 3 2 3 4 5 4 4 3 3 4 7 7 6 5 5 4 5 4 4 4 4 4 4 4 4 5
Wind_Direction
351 1 8 6 360 356 355 351 350 345 344 339 331 321 314 307 302 289 283 281 274 260 234 234 223 207 204 203 195 188 196 214 198 167 175 273 187 185 186 185 182 189 193
353 355 358 356 352 347 346 344 343 338 339 330 313 291 291 290 287 291 296 289 278 265 247 227 223 216 211 208 199 187 181 200 190 164 143 158 288 264 202 184 184 187 185
357 344 343 342 341 342 339 340 333 333 332 333 327 323 316 309 317 317 307 294 287 272 254 238 225 217 209 211 206 195 185 195 202 183 158 160 199 215 246 197 183 177 177
344 334 334 331 330 326 329 333 331 331 332 337 343 342 334 319 305 304 297 300 292 281 264 247 232 223 213 209 207 201 197 188 195 198 194 174 156 159 183 250 174 167 170
331 327 321 314 316 319 325 330 332 332 332 336 339 341 334 315 309 311 310 312 306 294 281 256 234 226 218 213 208 201 197 198 196 187 172 164 146 144 151 173 169 137 154
317 316 312 313 314 317 324 331 336 332 335 338 341 345 338 336 337 335 332 326 316 305 301 280 248 232 220 215 212 205 198 204 201 196 186 175 170 176 165 161 168 168 179
304 305 307 311 314 316 324 331 335 332 337 340 341 342 341 341 343 337 335 334 326 319 322 310 284 256 234 219 210 212 206 203 204 203 203 198 193 165 161 151 154 158 164
288 288 290 296 302 310 319 328 330 330 336 340 338 341 343 344 340 341 340 339 332 324 329 331 330 301 267 240 217 215 216 206 206 208 201 203 201 182 174 168 157 155 175
278 283 290 302 303 305 306 310 323 331 335 339 340 345 349 349 347 347 349 348 346 353 0 1 3 1 356 331 228 229 232 213 208 208 202 202 200 195 188 178 170 167 182
279 292 292 293 294 292 306 325 326 327 330 341 347 353 350 351 352 359 2 2 3 6 10 13 16 16 11 11 21 9 273 215 205 207 201 200 197 192 191 190 184 181 173
269 273 275 278 282 294 316 335 342 340 342 347 351 357 355 356 0 5 4 3 8 12 16 17 22 23 18 15 20 22 11 192 195 194 198 201 191 189 189 187 180 181 168
260 258 265 270 278 286 287 318 333 335 336 351 4 1 358 1 6 5 2 5 13 15 19 21 26 25 20 15 18 18 21 22 143 174 185 194 186 185 186 184 184 179 166
266 267 268 265 268 267 263 286 306 325 357 18 19 13 6 6 4 2 3 9 15 17 20 22 23 21 17 14 12 12 20 21 30 95 153 161 156 170 176 175 172 167 159
259 255 264 266 262 251 247 250 282 318 54 39 29 19 6 4 3 2 6 10 13 19 17 17 14 11 10 13 11 12 19 25 34 41 59 107 143 162 166 165 160 154 145
241 231 244 260 257 249 251 253 262 25 90 62 35 13 4 7 8 7 6 9 13 18 10 11 10 5 8 11 11 12 23 29 41 45 41 63 113 148 155 157 157 153 148
218 212 238 270 253 239 236 233 209 181 129 94 50 13 13 11 7 4 5 8 6 3 8 10 7 8 8 7 18 26 29 35 49 54 44 61 75 101 131 151 160 159 157
205 201 218 250 245 232 216 203 196 164 128 111 75 25 15 12 1 1 3 360 356 359 3 3 4 359 353 10 20 31 43 45 55 60 54 57 64 69 87 110 132 150 158
194 195 193 214 236 225 191 176 157 140 131 122 117 28 17 7 358 0 354 345 342 349 354 359 360 0 3 14 21 30 41 49 52 53 57 72 53 62 99 109 106 106 118
192 194 190 188 194 190 164 146 139 136 133 149 182 213 12 1 355 352 342 334 338 345 348 352 360 5 359 11 21 33 34 48 46 40 45 67 70 91 117 118 118 108 91
180 180 174 170 176 175 142 139 151 158 173 195 206 209 208 251 318 322 323 326 336 344 354 6 8 13 4 9 21 30 41 51 45 35 32 38 54 91 121 124 127 125 119
184 174 165 181 200 174 144 151 171 192 204 203 202 210 225 239 265 317 329 341 359 8 10 14 12 14 8 8 17 29 43 53 54 42 22 11 45 79 100 112 117 127 120
183 175 175 202 212 183 160 170 197 210 206 203 209 222 233 246 210 2 349 2 16 19 10 10 8 3 360 5 12 28 42 50 65 46 12 8 49 81 94 106 116 116 108
189 187 188 205 216 197 180 187 209 204 201 207 223 233 235 238 217 189 336 10 18 23 5 7 3 348 350 358 12 22 31 38 49 42 47 58 68 74 82 105 114 112 106
195 194 192 204 219 211 204 205 204 196 196 211 228 230 226 233 234 226 202 167 336 352 350 352 347 341 347 354 357 1 13 23 34 44 57 64 66 69 77 87 91 94 106
198 192 197 208 218 214 215 215 204 190 197 215 228 226 216 214 218 224 226 216 225 210 215 252 282 322 337 326 335 348 357 2 27 60 59 58 63 69 71 74 82 93 103
198 198 204 209 215 212 216 217 205 193 194 211 223 219 210 209 208 213 249 273 246 245 234 229 232 265 280 309 336 357 14 35 79 86 78 75 78 88 97 100 95 99 116
Height
1557 1554 1551 1547 1544 1540 1536 1533 1530 1527 1524 1521 1519 1517 1515 1514 1512 1511 1511 1510 1511 1511 1512 1513 1514 1516 1517 1519 1522 1524 1526 1529 1533 1536 1538 1541 1543 1545 1547 1549 1551 1552 1554
1556 1553 1550 1546 1543 1539 1535 1532 1529 1525 1522 1519 1517 1514 1512 1510 1508 1507 1506 1506 1506 1506 1506 1507 1509 1511 1512 1514 1517 1519 1521 1524 1527 1530 1533 1536 1539 1540 1543 1545 1547 1549 1551
1555 1552 1549 1546 1542 1538 1535 1531 1527 1524 1521 1518 1515 1512 1509 1507 1505 1503 1502 1501 1501 1501 1501 1502 1504 1505 1507 1509 1511 1513 1516 1518 1522 1525 1528 1530 1532 1535 1538 1540 1543 1545 1547
1555 1552 1549 1546 1542 1538 1535 1531 1527 1523 1520 1517 1513 1510 1507 1504 1502 1500 1498 1497 1497 1496 1497 1497 1498 1500 1501 1503 1505 1507 1510 1513 1515 1519 1522 1525 1527 1530 1532 1536 1538 1541 1543
1555 1552 1549 1546 1542 1539 1535 1531 1527 1524 1520 1516 1513 1509 1506 1503 1500 1498 1495 1494 1493 1492 1492 1492 1493 1494 1496 1498 1500 1502 1504 1507 1509 1513 1516 1519 1522 1524 1527 1529 1533 1536 1538
1554 1552 1549 1546 1542 1539 1535 1531 1528 1524 1520 1516 1513 1509 1505 1502 1499 1496 1493 1491 1490 1489 1488 1488 1489 1490 1491 1493 1494 1496 1498 1501 1503 1506 1509 1512 1516 1519 1522 1524 1527 1530 1533
1553 1551 1548 1545 1542 1538 1535 1531 1528 1524 1520 1516 1513 1509 1505 1502 1498 1495 1492 1490 1488 1486 1485 1485 1485 1486 1487 1488 1489 1491 1493 1495 1497 1500 1503 1506 1510 1514 1517 1520 1523 1526 1529
1553 1550 1547 1544 1541 1538 1535 1532 1528 1524 1521 1517 1513 1510 1506 1502 1499 1496 1492 1490 1487 1485 1484 1483 1483 1483 1483 1484 1485 1487 1488 1490 1492 1495 1497 1500 1504 1508 1511 1515 1518 1521 1524
1552 1549 1547 1544 1541 1538 1535 1532 1528 1525 1521 1518 1514 1511 1507 1503 1500 1496 1493 1490 1487 1485 1483 1482 1481 1481 1481 1481 1482 1482 1484 1485 1487 1489 1491 1494 1498 1501 1505 1509 1512 1516 1518
1550 1548 1546 1544 1541 1538 1535 1532 1529 1526 1522 1519 1515 1512 1508 1505 1501 1497 1494 1491 1488 1486 1484 1482 1481 1480 1479 1479 1479 1480 1481 1482 1483 1484 1486 1489 1492 1495 1499 1502 1506 1510 1513
1549 1548 1545 1543 1541 1538 1536 1533 1529 1526 1523 1520 1516 1513 1509 1506 1502 1499 1495 1492 1489 1487 1485 1483 1481 1480 1479 1479 1479 1478 1479 1479 1480 1481 1483 1485 1488 1490 1493 1497 1500 1504 1508
1548 1546 1545 1543 1540 1538 1535 1533 1530 1527 1524 1520 1517 1514 1510 1507 1503 1500 1497 1494 1491 1488 1486 1484 1482 1481 1480 1479 1478 1478 1477 1478 1478 1478 1480 1482 1484 1487 1490 1493 1496 1499 1503
1547 1545 1544 1542 1540 1538 1535 1533 1530 1527 1524 1521 1518 1514 1511 1508 1504 1501 1498 1495 1492 1489 1487 1485 1483 1481 1480 1479 1478 1477 1477 1477 1477 1477 1479 1480 1482 1484 1487 1489 1492 1496 1500
1546 1544 1543 1541 1539 1537 1535 1533 1530 1528 1525 1522 1518 1515 1512 1509 1506 1503 1499 1496 1493 1490 1488 1486 1484 1482 1481 1480 1479 1478 1477 1477 1477 1477 1478 1479 1481 1483 1485 1487 1490 1494 1497
1544 1543 1542 1540 1538 1536 1534 1532 1530 1528 1525 1522 1519 1516 1513 1510 1507 1504 1501 1498 1495 1492 1489 1487 1485 1483 1482 1480 1479 1479 1478 1478 1478 1478 1479 1480 1481 1483 1485 1487 1489 1492 1496
1542 1542 1540 1539 1537 1535 1534 1532 1530 1528 1525 1522 1519 1517 1514 1511 1508 1505 1502 1499 1496 1493 1491 1488 1486 1484 1482 1481 1480 1480 1479 1479 1479 1479 1479 1480 1481 1483 1484 1487 1489 1492 1495
1541 1540 1539 1538 1536 1535 1533 1531 1530 1528 1525 1523 1520 1517 1515 1511 1509 1506 1503 1500 1497 1495 1492 1489 1487 1484 1483 1481 1481 1480 1480 1479 1479 1479 1480 1481 1482 1483 1484 1487 1489 1492 1495
1539 1538 1538 1537 1535 1534 1532 1531 1529 1528 1525 1523 1520 1518 1515 1512 1510 1507 1504 1501 1499 1496 1493 1491 1488 1486 1483 1482 1481 1480 1480 1480 1480 1480 1481 1481 1482 1484 1485 1487 1489 1492 1495
1536 1537 1536 1536 1535 1533 1532 1531 1529 1527 1525 1523 1521 1519 1516 1513 1511 1508 1505 1502 1500 1497 1494 1492 1489 1487 1485 1483 1482 1481 1481 1481 1480 1481 1481 1482 1483 1484 1485 1487 1489 1492 1495
1534 1535 1535 1535 1534 1533 1531 1530 1529 1527 1525 1523 1521 1519 1517 1514 1512 1509 1506 1503 1501 1498 1496 1493 1490 1488 1486 1484 1483 1482 1481 1481 1481 1481 1482 1483 1483 1485 1486 1488 1490 1493 1495
1532 1533 1533 1533 1533 1532 1531 1530 1528 1527 1525 1523 1521 1520 1517 1515 1513 1510 1507 1505 1502 1499 1497 1494 1491 1489 1487 1485 1484 1483 1483 1482 1482 1482 1483 1483 1484 1485 1487 1489 1491 1494 1497
1530 1531 1531 1531 1531 1530 1530 1529 1527 1526 1525 1523 1522 1520 1518 1516 1514 1511 1509 1506 1503 1500 1498 1495 1493 1490 1488 1486 1485 1484 1484 1483 1483 1484 1484 1485 1486 1487 1489 1491 1493 1496 1499
1527 1528 1529 1529 1529 1529 1528 1527 1526 1525 1524 1523 1522 1520 1519 1517 1515 1512 1510 1507 1504 1501 1499 1496 1494 1492 1490 1488 1487 1486 1486 1486 1485 1486 1486 1486 1488 1489 1491 1494 1496 1498 1501
1524 1525 1526 1527 1527 1527 1526 1525 1525 1524 1523 1522 1521 1520 1518 1517 1515 1513 1511 1508 1505 1503 1500 1497 1495 1493 1491 1490 1489 1488 1488 1488 1488 1488 1488 1489 1490 1492 1494 1496 1499 1502 1504
1521 1522 1523 1524 1524 1524 1524 1523 1523 1522 1521 1520 1519 1518 1517 1516 1515 1513 1511 1509 1507 1504 1502 1499 1497 1495 1493 1492 1491 1490 1490 1490 1490 1491 1491 1492 1494 1495 1497 1499 1502 1505 1507
1517 1518 1519 1520 1521 1521 1521 1521 1520 1520 1519 1518 1517 1516 1515 1515 1514 1513 1511 1510 1507 1505 1503 1501 1498 1497 1495 1494 1493 1493 1493 1493 1493 1493 1494 1495 1497 1498 1500 1502 1505 1507 1509